Flag for U.S.A. Weather past 2 weeks in Garland, Texas, U.S.A.

70 °F

Mostly cloudy.

Feels Like: 70 °F
Forecast: 59 / 67 °F
Wind: 18 mph from Southeast

Location: Mesquite Metro Airport

Current Time: Nov 25, 2015 at 12:38:46 PM

Latest Report: Nov 25, 2015 at 11:50 AM

Visibility: 10 mi

Pressure: 30.08 "Hg

Humidity: 73%

Dew point: 61 °F

Location of GarlandLocation

Historic Weather in Garland — Graph


Garland temperature yesterday

Maximum temperature yesterday: 64 °F (at 1:50 PM)
Minimum temperature yesterday: 43 °F (at 6:50 AM)
Average temperature yesterday: 55 °F

Past Weeks' High & Low Weather Summary

High82 °F (Nov 11, 12:50 PM)100% (Nov 16, 3:50 PM)30.39 "Hg (Nov 16, 3:50 PM)
Low30 °F (Nov 22, 6:50 AM)22% (Nov 11, 8:55 PM)29.48 "Hg (Nov 17, 4:15 AM)
Average55 °F72%30.08 "Hg
* Reported Nov 10 10:50 AM — Nov 25 10:50 AM, Garland, Weather by CustomWeather, © 2015

Note: Actual official high and low records may vary slightly from our data, if they occured in-between our weather recording intervals... More about our weather records


Garland weather history for previous 24 hours

Time TempWeatherWind HumidityBarometerVisibility
10:50 AM
Wed, Nov 25
66 °FMostly cloudy.20 mph83%30.10 "Hg10 mi
9:50 AM63 °FLow clouds.14 mph94%30.10 "Hg10 mi
8:50 AM61 °FLow clouds.13 mph88%30.09 "Hg10 mi
7:50 AM59 °FLow clouds.13 mph94%30.08 "Hg10 mi
6:50 AM59 °FOvercast.9 mph88%30.06 "Hg10 mi
5:15 AM59 °FOvercast.8 mph86%30.06 "Hg10 mi
4:55 AM59 °FOvercast.8 mph85%30.06 "Hg10 mi
4:35 AM59 °FOvercast.7 mph84%30.05 "Hg10 mi
4:15 AM59 °FOvercast.7 mph84%30.05 "Hg10 mi
3:55 AM59 °FOvercast.9 mph82%30.06 "Hg10 mi
3:35 AM59 °FMostly cloudy.10 mph82%30.06 "Hg10 mi
3:15 AM59 °FMostly cloudy.10 mph82%30.06 "Hg10 mi
2:55 AM59 °FOvercast.10 mph82%30.07 "Hg10 mi
2:35 AM59 °FMostly cloudy.12 mph81%30.06 "Hg10 mi
2:15 AM59 °FOvercast.12 mph81%30.06 "Hg10 mi
1:55 AM59 °FMostly cloudy.8 mph81%30.07 "Hg10 mi
1:15 AM60 °FMostly cloudy.9 mph80%30.07 "Hg10 mi
12:55 AM60 °FMostly cloudy.10 mph79%30.07 "Hg10 mi
12:15 AM60 °FMostly cloudy.13 mph78%30.07 "Hg10 mi
11:55 PM
Tue, Nov 24
60 °FMostly cloudy.13 mph77%30.07 "Hg10 mi
11:15 PM60 °FOvercast.9 mph76%30.07 "Hg10 mi
10:55 PM61 °FOvercast.13 mph75%30.07 "Hg10 mi
10:15 PM61 °FMostly cloudy.14 mph74%30.07 "Hg10 mi
9:35 PM61 °FMostly cloudy.14 mph72%30.08 "Hg10 mi
9:15 PM62 °FOvercast.12 mph70%30.08 "Hg10 mi
8:55 PM62 °FOvercast.18 mph70%30.07 "Hg10 mi
8:15 PM62 °FOvercast.12 mph69%30.07 "Hg10 mi
7:55 PM62 °FOvercast.8 mph68%30.07 "Hg10 mi
7:35 PM62 °FOvercast.7 mph68%30.08 "Hg10 mi
7:15 PM62 °FOvercast.7 mph67%30.08 "Hg10 mi
5:50 PM63 °FOvercast.10 mph64%30.05 "Hg10 mi
4:50 PM63 °FOvercast.9 mph64%30.05 "Hg10 mi
3:50 PM64 °FOvercast.14 mph56%30.05 "Hg10 mi
2:50 PM64 °FOvercast.14 mph56%30.08 "Hg10 mi
1:50 PM64 °FPartly sunny.17 mph56%30.09 "Hg10 mi
12:50 PM63 °FPartly sunny.13 mph59%30.13 "Hg10 mi
Weather by CustomWeather, © 2015

See weather overviewHow to use our weather pages